Погода в Волочанке

Погода в Волочанке : погода сейчас, прогноз погоды и архив. Всё, что Вы хотите узнать о погоде в Волочанке!

Поиск расширенной информации на нашем сайте:

Другие новости

Новости СМИ2

Главная страница сайта

Новости сайта

02.10.2013

Напоминаем, что на нашем новом сайте вы можете получить высокодетализированные прогнозы погоды по пунктам России, СНГ и мира (включающие важные для авиации метеовеличины, такие как направление и скорость ветра, видимость, явления погоды, количество и форма облачности, нижняя и верхняя граница облачности), а также ознакомиться с разнообразными материалами по авиационной метеорологии и подборкой полезных ссылок на эту тему.

Сайт Метеоцентр.Азия посвящён разработке технологий оптимизации авиаметеорологического обслуживания, включая проектирование и перспективное создание нескольких автоматизированных авиаметеорологических систем:
- система выпуска высокодетальных прогностических карт явлений погоды для нижнего воздушного пространства по России и ближнему зарубежью;
- система верификации прогнозов TAF (выпускаемых синоптиками официальных АМСГ РФ и ближнего зарубежья) и AUTOTAF (выпускаемых сайтом Метеоцентр.Азия) - выявление ошибок, онлайн-сопоставление с фактической погодой METAR, автоматическое внесение коррективов в прогнозы при резком отклонении фактической погоды от прогноза, подсчёт оправдываемости прогнозов по элементам и в целом;
- система обработки, анализа и отображения авиаметеорологической информации для применения провайдерами метеорологической информации.


Погода в Волочанке - сегодня

Время (UTC), дата Ветер
(°,м/с) 
Видим.   Явления Облачность Т
(°С)
Тd
(°С)
f(%) Тe
(°С)
Pmin
(гПа)
dP
(гПа)
Po
(мм)
O2
(г/м3)
Тmin Tmax R s Состояние
почвы
06 23.02.17 120 (ЮВ) 10 км    4/0 верхняя 
[Cs]
-33 -36 74 -34  1011.8  1.5  754  348           
09 23.02.17 120 (ЮВ) 10 км    1/0 верхняя 
[Ci fib]
-32.3 -35.9 70 -33  1012.1  0.5  755  347           
12 23.02.17 060 (СВ) 10 км    3/0 верхняя 
[Ci fib]
-34 -36.8 76 -38  1012.8  0.5  755  350    -32.3       
15 23.02.17 050 (СВ) 10 км    ясно 
-34.7 -37.7 74 -41  1011.6  -1.2  754  350           
18 23.02.17 060 (СВ) 10 км    ясно 
-33.5 -36.6 74 -42  1009.3  -2.2  753  348           
21 23.02.17 070 (В) 10 км  ледяные иглы  ясно 
-31.2 -34.3 74 -38  1005.4  -3.8  750  343           
00 24.02.17 050 (СВ) 10 км  ледяные иглы  9/0 средняя 
[Ac As]
-27 -30.2 74 -30  1002.1  -3.2  747  336  -34.7    0.0  19  равномерный
сухой снег
100% 
03 24.02.17 010 (С) 4000 м  слаб. снег  10/10 600 м 
[Sc]
-25 -27.4 80 -30  1001.2  -0.9  747  333           
06 24.02.17 250 (З) 10 км  {снег}  8/4 600 м средняя, верхняя 
[Sc|Ac As|Cs]
-27.6 -30.7 75 -34  1003  1.7  748  337           
09 24.02.17 270 (З) 4000 м  слаб. снег  10/10 600 м 
[Sc]
-27 -30.2 74 -36  1005.5  0.6  750  337           
12 24.02.17 200 (Ю) 4000 м  слаб. снег  10/10 600 м 
[Sc]
-26.5 -29.7 74 -35  1010.1  4.6  753  338  -24.8       
00 25.02.17 260 (З) 10 км  позёмок{снег}  8/3 600 м верхняя 
[Sc|Cs]
-27 -30.2 74 -35  1015.7  1.7  758  341  -27.2    0.4  19  равномерный
сухой снег
100% 
03 25.02.17 270 (З) 7{12}  4000 м  слаб. снег  10/8 600 м средняя 
[Sc|As op]
-27.7 -30.8 75 -37  1019.9  4.1  761  343  -27.7         
06 25.02.17 270 (З) 7{11}  4000 м  слаб. снег  10/3 600 м средняя 
[Sc|As op]
-27.4 -30.5 75 -37  1021.8  1.9  762  343           
09 25.02.17 260 (З) 6{10}  10 км  позёмок{снег}  10/6 2000 м средняя, верхняя 
[Ac As|Cs]
-27.4 -30.5 75 -36  1024.9  3.1  764  344           
12 25.02.17 240 (ЮЗ) 10 км  {снег}  10/3 2000 м средняя, верхняя 
[Ac lent|Ci]
-28.8 -31.9 75 -34  1027.5  2.5  766  347    -27  0.8     
15 25.02.17 250 (З) 10 км    6/3 2000 м средняя, верхняя 
[Ac As|Cs]
-30.9 -33.9 75 -37  1028.4  0.9  767  350           
18 25.02.17 220 (ЮЗ) 10 км    8/3 2000 м средняя, верхняя 
[Ac As|Ci]
-31.3 -34.3 75 -37  1028.6  0.2  767  351           
00 26.02.17 260 (З) 10 км  слаб. снег  10/10 2000 м 
[Ac As]
-24.4 -27.6 75 -31  1030.7  1.3  769  342  -31.6    0.0  19  равномерный
сухой снег
100% 
03 26.02.17 260 (З) 10 км  позёмок{снег}  3/1 2000 м средняя, верхняя 
[Ac As|Ci fib]
-24.8 -27.3 80 -31  1031.8  1.1  770  343           
06 26.02.17 250 (З) 10 км  {снег}  3/0 верхняя 
[Cs]
-24.4 -26.9 80 -29  1033.2  1.4  771  343           
09 26.02.17 230 (ЮЗ) 20000 м    8/1 2000 м средняя, верхняя 
[Ac lent|Cs]
-23.4 -26.6 75 -26  1034.2  771  342           
12 26.02.17 240 (ЮЗ) 10 км    6/0 верхняя 
[Ci]
-26.6 -29 80 -32  1035.7  1.5  773  347    -23.7  0.0     
15 26.02.17 210 (ЮЗ) 10 км    3/0 верхняя 
[Ci fib]
-27.7 -30.1 80 -31  1036.9  1.1  773  349           
18 26.02.17 200 (Ю) 10 км    3/0 верхняя 
[Ci fib]
-31.7 -34.8 74 -33  1036.5  -0.4  773  354           
Время (UTC), дата Ветер
(°,м/с) 
Видим.   Явления Облачность Т
(°С)
Тd
(°С)
f(%) Тe
(°С)
Pmin
(гПа)
dP
(гПа)
Po
(мм)
O2
(г/м3)
Тmin Tmax R s Состояние
почвы

Для получения пояснительной информации подведите курсор к названию столбца.

ПОГОДА в Волочанке - архив

Всё, что Вы хотите узнать о погоде в Волочанке - удобно и подробно!

Выберите нужную дату (начиная с 1 января 2015* года) и нажмите кнопку "Найти".
Будут отображены архивные сводки погоды по пункту Волочанка, начиная с указанной даты.


Отображать данные в формате CSV (для использования в таблицах Excel)


Внимание! Наш архив погоды предназначен исключительно для личного некоммерческого использования в познавательных целях. Если Вам необходимы официальные справки о состоянии погоды (для производственных, юридических, коммерческих и т.п. целей), обращайтесь в органы Росгидромета.

*Примечание: данная дата относится к архиву по метеостанциям СССР (Россия, СНГ, Балтия).
Архив по метеостанциям Зарубежной Европы и Азии (кроме Китая) хранится 10 дней, по другим регионам земного шара (Китай, Африка, Америка, Австралия, Океания) - 1 день.

Волочанка - район местоположения метеостанции


Название, широта, долгота, высота метеостанции:
Волочанка 71°ш. 94.6°д. 37 м над ур. моря [Российская Федерация]

Дополнительная информация

В oтличие oт бoльшинства пoгoдных сайтoв мы публикуем пoдрoбную метеoинфoрмацию в детальнoм прoфессиoнальнoм фoрмате.

Характеристики температуры и влажнoсти вoздуха измеряются на высoте 2 м в тени вдали oт зданий и деревьев.
Скoрoсть ветра измеряется на высoте 10 м (на урoвне рoста челoвека скoрoсть ветра ниже в 1.5-2 раза). Если метеoстанция нахoдится в гoрoде или в лесу, тo скoрoсть ветра занижена на 2-4 м/с пo сравнению с oткрытым местoм. Скoрoсть ветра над акватoриями крупных рек и oзёр, а также на вершинах хoлмoв на 2-5 м/с выше, чем в oбычных услoвиях.
Атмoсфернoе давление в разных тoчках местнoсти мoжет значительнo oтличаться oт давления на метеoстанции, в зависимoсти oт услoвий рельефа (при пoдъёме на 10 м давление пoнижается примернo на 1 мм рт.ст.).